Terminal Aerodrome Forecast
Issued by NWS

Home | Current Version | Previous Version | Text Only | Print | Product List | Glossary On
Versions: 1 2 3 4 5 6 7 8 9 10 11 12 13 14 15 16 17 18 19 20 21 22 23 24 25 26
000
FTUS43 KAPX 062044 AAB
TAFAPN
TAF AMD
KAPN 062044Z 0621/0718 13015KT P6SM OVC028
     FM070100 18007KT P6SM VCSH OVC020
     FM070400 22007KT P6SM BKN035
     FM070600 25009KT P6SM BKN035
     FM071400 24014G22KT P6SM BKN035=

USA.gov is the U.S. government's official web portal to all federal, state and local government web resources and services.